Year,Month,Day,Hour,Minute,Value (Times are PST for temperature in C)
2019,04,02,00,00,12.80
2019,04,02,00,01,12.80
2019,04,02,00,02,12.80
2019,04,02,00,03,12.80
2019,04,02,00,04,12.80
2019,04,02,00,05,12.70
2019,04,02,00,06,12.80
2019,04,02,00,07,12.80
2019,04,02,00,08,12.80
2019,04,02,00,09,12.80
2019,04,02,00,10,12.80
2019,04,02,00,11,12.80
2019,04,02,00,12,12.80
2019,04,02,00,13,12.80
2019,04,02,00,14,12.80
2019,04,02,00,15,12.80
2019,04,02,00,16,12.80
2019,04,02,00,17,12.80
2019,04,02,00,18,12.80
2019,04,02,00,19,12.70
2019,04,02,00,20,12.70
2019,04,02,00,21,12.60
2019,04,02,00,22,12.60
2019,04,02,00,23,12.60
2019,04,02,00,24,12.50
2019,04,02,00,25,12.50
2019,04,02,00,26,12.40
2019,04,02,00,27,12.40
2019,04,02,00,28,12.30
2019,04,02,00,29,12.30
2019,04,02,00,30,12.20
2019,04,02,00,31,12.20
2019,04,02,00,32,12.10
2019,04,02,00,33,12.10
2019,04,02,00,34,12.00
2019,04,02,00,35,11.90
2019,04,02,00,36,11.90
2019,04,02,00,37,11.80
2019,04,02,00,38,11.80
2019,04,02,00,39,11.70
2019,04,02,00,40,11.60
2019,04,02,00,41,11.60
2019,04,02,00,42,11.50
2019,04,02,00,43,11.40
2019,04,02,00,44,11.40
2019,04,02,00,45,11.30
2019,04,02,00,46,11.30
2019,04,02,00,47,11.20
2019,04,02,00,48,11.20
2019,04,02,00,49,11.10
2019,04,02,00,50,11.10
2019,04,02,00,51,11.10
2019,04,02,00,52,11.00
2019,04,02,00,53,10.90
2019,04,02,00,54,10.90
2019,04,02,00,55,10.90
2019,04,02,00,56,10.80
2019,04,02,00,57,10.80
2019,04,02,00,58,10.80
2019,04,02,00,59,10.80
2019,04,02,01,00,10.80
2019,04,02,01,01,10.80
2019,04,02,01,02,10.70
2019,04,02,01,03,10.70
2019,04,02,01,04,10.60
2019,04,02,01,05,10.60
2019,04,02,01,06,10.60
2019,04,02,01,07,10.60
2019,04,02,01,08,10.60
2019,04,02,01,09,10.60
2019,04,02,01,10,10.60
2019,04,02,01,11,10.60
2019,04,02,01,12,10.60
2019,04,02,01,13,10.60
2019,04,02,01,14,10.60
2019,04,02,01,15,10.60
2019,04,02,01,16,10.60
2019,04,02,01,17,10.60
2019,04,02,01,18,10.60
2019,04,02,01,19,10.60
2019,04,02,01,20,10.60
2019,04,02,01,21,10.60
2019,04,02,01,22,10.60
2019,04,02,01,23,10.60
2019,04,02,01,24,10.60
2019,04,02,01,25,10.60
2019,04,02,01,26,10.60
2019,04,02,01,27,10.60
2019,04,02,01,28,10.60
2019,04,02,01,29,10.60
2019,04,02,01,30,10.60
2019,04,02,01,31,10.60
2019,04,02,01,32,10.50
2019,04,02,01,33,10.50
2019,04,02,01,34,10.40
2019,04,02,01,35,10.40
2019,04,02,01,36,10.30
2019,04,02,01,37,10.20
2019,04,02,01,38,10.20
2019,04,02,01,39,10.20
2019,04,02,01,40,10.10
2019,04,02,01,41,10.00
2019,04,02,01,42,10.00
2019,04,02,01,43,9.90
2019,04,02,01,44,9.90
2019,04,02,01,45,9.90
2019,04,02,01,46,9.90
2019,04,02,01,47,9.80
2019,04,02,01,48,9.80
2019,04,02,01,49,9.80
2019,04,02,01,50,9.80
2019,04,02,01,51,9.80
2019,04,02,01,52,9.80
2019,04,02,01,53,9.80
2019,04,02,01,54,9.80
2019,04,02,01,55,9.80
2019,04,02,01,56,9.80
2019,04,02,01,57,9.80
2019,04,02,01,58,9.80
2019,04,02,01,59,9.70
2019,04,02,02,00,9.80
2019,04,02,02,01,9.70
2019,04,02,02,02,9.70
2019,04,02,02,03,9.70
2019,04,02,02,04,9.70
2019,04,02,02,05,9.70
2019,04,02,02,06,9.70
2019,04,02,02,07,9.80
2019,04,02,02,08,9.80
2019,04,02,02,09,9.80
2019,04,02,02,10,9.80
2019,04,02,02,11,9.80
2019,04,02,02,12,9.80
2019,04,02,02,13,9.80
2019,04,02,02,14,9.80
2019,04,02,02,15,9.90
2019,04,02,02,16,9.90
2019,04,02,02,17,9.90
2019,04,02,02,18,9.90
2019,04,02,02,19,10.00
2019,04,02,02,20,10.00
2019,04,02,02,21,10.10
2019,04,02,02,22,10.10
2019,04,02,02,23,10.10
2019,04,02,02,24,10.20
2019,04,02,02,25,10.20
2019,04,02,02,26,10.20
2019,04,02,02,27,10.20
2019,04,02,02,28,10.20
2019,04,02,02,29,10.20
2019,04,02,02,30,10.20
2019,04,02,02,31,10.20
2019,04,02,02,32,10.10
2019,04,02,02,33,10.10
2019,04,02,02,34,10.10
2019,04,02,02,35,10.10
2019,04,02,02,36,10.10
2019,04,02,02,37,10.10
2019,04,02,02,38,10.10
2019,04,02,02,39,10.10
2019,04,02,02,40,10.20
2019,04,02,02,41,10.20
2019,04,02,02,42,10.20
2019,04,02,02,43,10.20
2019,04,02,02,44,10.20
2019,04,02,02,45,10.20
2019,04,02,02,46,10.10
2019,04,02,02,47,10.10
2019,04,02,02,48,10.00
2019,04,02,02,49,10.00
2019,04,02,02,50,9.90
2019,04,02,02,51,9.80
2019,04,02,02,52,9.80
2019,04,02,02,53,9.70
2019,04,02,02,54,9.70
2019,04,02,02,55,9.60
2019,04,02,02,56,9.50
2019,04,02,02,57,9.40
2019,04,02,02,58,9.40
2019,04,02,02,59,9.40
2019,04,02,03,00,9.40
2019,04,02,03,01,9.40
2019,04,02,03,02,9.40
2019,04,02,03,03,9.50
2019,04,02,03,04,9.50
2019,04,02,03,05,9.50
2019,04,02,03,06,9.60
2019,04,02,03,07,9.60
2019,04,02,03,08,9.60
2019,04,02,03,09,9.60
2019,04,02,03,10,9.70
2019,04,02,03,11,9.70
2019,04,02,03,12,9.70
2019,04,02,03,13,9.70
2019,04,02,03,14,9.60
2019,04,02,03,15,9.60
2019,04,02,03,16,9.60
2019,04,02,03,17,9.60
2019,04,02,03,18,9.60
2019,04,02,03,19,9.60
2019,04,02,03,20,9.70
2019,04,02,03,21,9.70
2019,04,02,03,22,9.70
2019,04,02,03,23,9.70
2019,04,02,03,24,9.70
2019,04,02,03,25,9.70
2019,04,02,03,26,9.70
2019,04,02,03,27,9.70
2019,04,02,03,28,9.60
2019,04,02,03,29,9.70
2019,04,02,03,30,9.70
2019,04,02,03,31,9.70
2019,04,02,03,32,9.70
2019,04,02,03,33,9.70
2019,04,02,03,34,9.70
2019,04,02,03,35,9.70
2019,04,02,03,36,9.70
2019,04,02,03,37,9.70
2019,04,02,03,38,9.70
2019,04,02,03,39,9.70
2019,04,02,03,40,9.70
2019,04,02,03,41,9.70
2019,04,02,03,42,9.70
2019,04,02,03,43,9.70
2019,04,02,03,44,9.70
2019,04,02,03,45,9.70
2019,04,02,03,46,9.70
2019,04,02,03,47,9.60
2019,04,02,03,48,9.70
2019,04,02,03,49,9.70
2019,04,02,03,50,9.70
2019,04,02,03,51,9.70
2019,04,02,03,52,9.70
2019,04,02,03,53,9.70
2019,04,02,03,54,9.70
2019,04,02,03,55,9.60
2019,04,02,03,56,9.50
2019,04,02,03,57,9.50
2019,04,02,03,58,9.40
2019,04,02,03,59,9.40
2019,04,02,04,00,9.40
2019,04,02,04,01,9.30
2019,04,02,04,02,9.40
2019,04,02,04,03,9.30
2019,04,02,04,04,9.30
2019,04,02,04,05,9.30
2019,04,02,04,06,9.30
2019,04,02,04,07,9.30
2019,04,02,04,08,9.30
2019,04,02,04,09,9.40
2019,04,02,04,10,9.40
2019,04,02,04,11,9.40
2019,04,02,04,12,9.40
2019,04,02,04,13,9.40
2019,04,02,04,14,9.40
2019,04,02,04,15,9.40
2019,04,02,04,16,9.40
2019,04,02,04,17,9.40
2019,04,02,04,18,9.40
2019,04,02,04,19,9.30
2019,04,02,04,20,9.30
2019,04,02,04,21,9.20
2019,04,02,04,22,9.10
2019,04,02,04,23,9.10
2019,04,02,04,24,9.10
2019,04,02,04,25,9.10
2019,04,02,04,26,9.10
2019,04,02,04,27,9.10
2019,04,02,04,28,9.00
2019,04,02,04,29,9.00
2019,04,02,04,30,9.00
2019,04,02,04,31,9.00
2019,04,02,04,32,9.00
2019,04,02,04,33,9.00
2019,04,02,04,34,9.00
2019,04,02,04,35,8.90
2019,04,02,04,36,8.90
2019,04,02,04,37,8.90
2019,04,02,04,38,8.90
2019,04,02,04,39,8.90
2019,04,02,04,40,8.80
2019,04,02,04,41,8.80
2019,04,02,04,42,8.80
2019,04,02,04,43,8.80
2019,04,02,04,44,8.80
2019,04,02,04,45,8.80
2019,04,02,04,46,8.80
2019,04,02,04,47,8.80
2019,04,02,04,48,8.70
2019,04,02,04,49,8.70
2019,04,02,04,50,8.70
2019,04,02,04,51,8.70
2019,04,02,04,52,8.70
2019,04,02,04,53,8.70
2019,04,02,04,54,8.70
2019,04,02,04,55,8.60
2019,04,02,04,56,8.60
2019,04,02,04,57,8.60
2019,04,02,04,58,8.60
2019,04,02,04,59,8.60
2019,04,02,05,00,8.60
2019,04,02,05,01,8.60
2019,04,02,05,02,8.60
2019,04,02,05,03,8.60
2019,04,02,05,04,8.60
2019,04,02,05,05,8.60
2019,04,02,05,06,8.60
2019,04,02,05,07,8.60
2019,04,02,05,08,8.50
2019,04,02,05,09,8.50
2019,04,02,05,10,8.40
2019,04,02,05,11,8.40
2019,04,02,05,12,8.30
2019,04,02,05,13,8.30
2019,04,02,05,14,8.30
2019,04,02,05,15,8.40
2019,04,02,05,16,8.40
2019,04,02,05,17,8.40
2019,04,02,05,18,8.50
2019,04,02,05,19,8.60
2019,04,02,05,20,8.60
2019,04,02,05,21,8.60
2019,04,02,05,22,8.60
2019,04,02,05,23,8.60
2019,04,02,05,24,8.60
2019,04,02,05,25,8.60
2019,04,02,05,26,8.60
2019,04,02,05,27,8.70
2019,04,02,05,28,8.70
2019,04,02,05,29,8.70
2019,04,02,05,30,8.70
2019,04,02,05,31,8.70
2019,04,02,05,32,8.70
2019,04,02,05,33,8.70
2019,04,02,05,34,8.70
2019,04,02,05,35,8.70
2019,04,02,05,36,8.70
2019,04,02,05,37,8.70
2019,04,02,05,38,8.60
2019,04,02,05,39,8.60
2019,04,02,05,40,8.60
2019,04,02,05,41,8.60
2019,04,02,05,42,8.60
2019,04,02,05,43,8.60
2019,04,02,05,44,8.70
2019,04,02,05,45,8.70
2019,04,02,05,46,8.70
2019,04,02,05,47,8.70
2019,04,02,05,48,8.70
2019,04,02,05,49,8.70
2019,04,02,05,50,8.70
2019,04,02,05,51,8.70
2019,04,02,05,52,8.70
2019,04,02,05,53,8.70
2019,04,02,05,54,8.70
2019,04,02,05,55,8.60
2019,04,02,05,56,8.60
2019,04,02,05,57,8.50
2019,04,02,05,58,8.50
2019,04,02,05,59,8.50
2019,04,02,06,00,8.50
2019,04,02,06,01,8.50
2019,04,02,06,02,8.50
2019,04,02,06,03,8.60
2019,04,02,06,04,8.60
2019,04,02,06,05,8.60
2019,04,02,06,06,8.60
2019,04,02,06,07,8.60
2019,04,02,06,08,8.60
2019,04,02,06,09,8.50
2019,04,02,06,10,8.40
2019,04,02,06,11,8.40
2019,04,02,06,12,8.40
2019,04,02,06,13,8.30
2019,04,02,06,14,8.30
2019,04,02,06,15,8.30
2019,04,02,06,16,8.30
2019,04,02,06,17,8.30
2019,04,02,06,18,8.30
2019,04,02,06,19,8.30
2019,04,02,06,20,8.30
2019,04,02,06,21,8.30
2019,04,02,06,22,8.30
2019,04,02,06,23,8.30
2019,04,02,06,24,8.30
2019,04,02,06,25,8.40
2019,04,02,06,26,8.40
2019,04,02,06,27,8.40
2019,04,02,06,28,8.40
2019,04,02,06,29,8.40
2019,04,02,06,30,8.40
2019,04,02,06,31,8.40
2019,04,02,06,32,8.40
2019,04,02,06,33,8.40
2019,04,02,06,34,8.50
2019,04,02,06,35,8.50
2019,04,02,06,36,8.60
2019,04,02,06,37,8.60
2019,04,02,06,38,8.60
2019,04,02,06,39,8.60
2019,04,02,06,40,8.60
2019,04,02,06,41,8.60
2019,04,02,06,42,8.70
2019,04,02,06,43,8.70
2019,04,02,06,44,8.70
2019,04,02,06,45,8.70
2019,04,02,06,46,8.70
2019,04,02,06,47,8.80
2019,04,02,06,48,8.80
2019,04,02,06,49,8.80
2019,04,02,06,50,8.80
2019,04,02,06,51,8.80
2019,04,02,06,52,8.80
2019,04,02,06,53,8.80
2019,04,02,06,54,8.80
2019,04,02,06,55,8.80
2019,04,02,06,56,8.80
2019,04,02,06,57,8.80
2019,04,02,06,58,8.80
2019,04,02,06,59,8.80
2019,04,02,07,00,8.90
2019,04,02,07,01,8.90
2019,04,02,07,02,8.90
2019,04,02,07,03,8.80
2019,04,02,07,04,8.80
2019,04,02,07,05,8.80
2019,04,02,07,06,8.70
2019,04,02,07,07,8.60
2019,04,02,07,08,8.60
2019,04,02,07,09,8.50
2019,04,02,07,10,8.50
2019,04,02,07,11,8.60
2019,04,02,07,12,8.70
2019,04,02,07,13,8.70
2019,04,02,07,14,8.70
2019,04,02,07,15,8.70
2019,04,02,07,16,8.80
2019,04,02,07,17,8.80
2019,04,02,07,18,8.80
2019,04,02,07,19,8.90
2019,04,02,07,20,8.90
2019,04,02,07,21,9.00
2019,04,02,07,22,9.00
2019,04,02,07,23,9.10
2019,04,02,07,24,9.10
2019,04,02,07,25,9.10
2019,04,02,07,26,9.20
2019,04,02,07,27,9.20
2019,04,02,07,28,9.20
2019,04,02,07,29,9.20
2019,04,02,07,30,9.20
2019,04,02,07,31,9.20
2019,04,02,07,32,9.20
2019,04,02,07,33,9.30
2019,04,02,07,34,9.30
2019,04,02,07,35,9.30
2019,04,02,07,36,9.30
2019,04,02,07,37,9.30
2019,04,02,07,38,9.30
2019,04,02,07,39,9.40
2019,04,02,07,40,9.40
2019,04,02,07,41,9.50
2019,04,02,07,42,9.50
2019,04,02,07,43,9.60
2019,04,02,07,44,9.70
2019,04,02,07,45,9.70
2019,04,02,07,46,9.80
2019,04,02,07,47,9.80
2019,04,02,07,48,9.80
2019,04,02,07,49,9.90
2019,04,02,07,50,9.90
2019,04,02,07,51,10.00
2019,04,02,07,52,10.00
2019,04,02,07,53,10.00
2019,04,02,07,54,10.10
2019,04,02,07,55,10.20
2019,04,02,07,56,10.30
2019,04,02,07,57,10.40
2019,04,02,07,58,10.40
2019,04,02,07,59,10.50
2019,04,02,08,00,10.50
2019,04,02,08,01,10.60
2019,04,02,08,02,10.70
2019,04,02,08,03,10.80
2019,04,02,08,04,10.80
2019,04,02,08,05,10.90
2019,04,02,08,06,10.90
2019,04,02,08,07,11.00
2019,04,02,08,08,11.00
2019,04,02,08,09,11.10
2019,04,02,08,10,11.10
2019,04,02,08,11,11.10
2019,04,02,08,12,11.10
2019,04,02,08,13,11.20
2019,04,02,08,14,11.20
2019,04,02,08,15,11.20
2019,04,02,08,16,11.30
2019,04,02,08,17,11.30
2019,04,02,08,18,11.40
2019,04,02,08,19,11.40
2019,04,02,08,20,11.40
2019,04,02,08,21,11.50
2019,04,02,08,22,11.50
2019,04,02,08,23,11.60
2019,04,02,08,24,11.70
2019,04,02,08,25,11.70
2019,04,02,08,26,11.80
2019,04,02,08,27,11.80
2019,04,02,08,28,11.90
2019,04,02,08,29,11.90
2019,04,02,08,30,12.00
2019,04,02,08,31,12.00
2019,04,02,08,32,12.10
2019,04,02,08,33,12.10
2019,04,02,08,34,12.20
2019,04,02,08,35,12.20
2019,04,02,08,36,12.20
2019,04,02,08,37,12.30
2019,04,02,08,38,12.30
2019,04,02,08,39,12.40
2019,04,02,08,40,12.40
2019,04,02,08,41,12.50
2019,04,02,08,42,12.60
2019,04,02,08,43,12.70
2019,04,02,08,44,12.70
2019,04,02,08,45,12.80
2019,04,02,08,46,12.90
2019,04,02,08,47,12.90
2019,04,02,08,48,13.00
2019,04,02,08,49,13.10
2019,04,02,08,50,13.10
2019,04,02,08,51,13.10
2019,04,02,08,52,13.20
2019,04,02,08,53,13.20
2019,04,02,08,54,13.30
2019,04,02,08,55,13.30
2019,04,02,08,56,13.30
2019,04,02,08,57,13.40
2019,04,02,08,58,13.50
2019,04,02,08,59,13.60
2019,04,02,09,00,13.60
2019,04,02,09,01,13.70
2019,04,02,09,02,13.70
2019,04,02,09,03,13.70
2019,04,02,09,04,13.70
2019,04,02,09,05,13.80
2019,04,02,09,06,13.80
2019,04,02,09,07,13.80
2019,04,02,09,08,13.80
2019,04,02,09,09,13.80
2019,04,02,09,10,13.80
2019,04,02,09,11,13.80
2019,04,02,09,12,13.90
2019,04,02,09,13,13.90
2019,04,02,09,14,13.90
2019,04,02,09,15,13.90
2019,04,02,09,16,13.90
2019,04,02,09,17,13.90
2019,04,02,09,18,13.90
2019,04,02,09,19,13.90
2019,04,02,09,20,13.90
2019,04,02,09,21,14.00
2019,04,02,09,22,14.00
2019,04,02,09,23,14.10
2019,04,02,09,24,14.10
2019,04,02,09,25,14.10
2019,04,02,09,26,14.10
2019,04,02,09,27,14.10
2019,04,02,09,28,14.10
2019,04,02,09,29,14.10
2019,04,02,09,30,14.10
2019,04,02,09,31,14.20
2019,04,02,09,32,14.20
2019,04,02,09,33,14.20
2019,04,02,09,34,14.20
2019,04,02,09,35,14.30
2019,04,02,09,36,14.30
2019,04,02,09,37,14.30
2019,04,02,09,38,14.30
2019,04,02,09,39,14.30
2019,04,02,09,40,14.30
2019,04,02,09,41,14.30
2019,04,02,09,42,14.20
2019,04,02,09,43,14.20
2019,04,02,09,44,14.20
2019,04,02,09,45,14.20
2019,04,02,09,46,14.20
2019,04,02,09,47,14.20
2019,04,02,09,48,14.20
2019,04,02,09,49,14.10
2019,04,02,09,50,14.10
2019,04,02,09,51,14.10
2019,04,02,09,52,14.20
2019,04,02,09,53,14.20
2019,04,02,09,54,14.20
2019,04,02,09,55,14.30
2019,04,02,09,56,14.20
2019,04,02,09,57,14.20
2019,04,02,09,58,14.20
2019,04,02,09,59,14.20
2019,04,02,10,00,14.20
2019,04,02,10,01,14.20
2019,04,02,10,02,14.20
2019,04,02,10,03,14.20
2019,04,02,10,04,14.20
2019,04,02,10,05,14.20
2019,04,02,10,06,14.20
2019,04,02,10,07,14.30
2019,04,02,10,08,14.30
2019,04,02,10,09,14.40
2019,04,02,10,10,14.40
2019,04,02,10,11,14.40
2019,04,02,10,12,14.40
2019,04,02,10,13,14.30
2019,04,02,10,14,14.30
2019,04,02,10,15,14.20
2019,04,02,10,16,14.10
2019,04,02,10,17,14.10
2019,04,02,10,18,14.00
2019,04,02,10,19,13.90
2019,04,02,10,20,13.80
2019,04,02,10,21,13.80
2019,04,02,10,22,13.80
2019,04,02,10,23,13.80
2019,04,02,10,24,13.90
2019,04,02,10,25,13.90
2019,04,02,10,26,13.90
2019,04,02,10,27,14.00
2019,04,02,10,28,14.00
2019,04,02,10,29,14.00
2019,04,02,10,30,14.00
2019,04,02,10,31,14.00
2019,04,02,10,32,14.00
2019,04,02,10,33,14.00
2019,04,02,10,34,14.10
2019,04,02,10,35,14.10
2019,04,02,10,36,14.20
2019,04,02,10,37,14.20
2019,04,02,10,38,14.30
2019,04,02,10,39,14.30
2019,04,02,10,40,14.40
2019,04,02,10,41,14.40
2019,04,02,10,42,14.40
2019,04,02,10,43,14.40
2019,04,02,10,44,14.40
2019,04,02,10,45,14.40
2019,04,02,10,46,14.40
2019,04,02,10,47,14.50
2019,04,02,10,48,14.60
2019,04,02,10,49,14.60
2019,04,02,10,50,14.70
2019,04,02,10,51,14.70
2019,04,02,10,52,14.80
2019,04,02,10,53,14.80
2019,04,02,10,54,14.80
2019,04,02,10,55,14.80
2019,04,02,10,56,14.80
2019,04,02,10,57,14.70
2019,04,02,10,58,14.60
2019,04,02,10,59,14.60
2019,04,02,11,00,14.50
2019,04,02,11,01,14.50
2019,04,02,11,02,14.50
2019,04,02,11,03,14.50
2019,04,02,11,04,14.60
2019,04,02,11,05,14.60
2019,04,02,11,06,14.60
2019,04,02,11,07,14.60
2019,04,02,11,08,14.70
2019,04,02,11,09,14.70
2019,04,02,11,10,14.70
2019,04,02,11,11,14.60
2019,04,02,11,12,14.60
2019,04,02,11,13,14.50
2019,04,02,11,14,14.40
2019,04,02,11,15,14.40
2019,04,02,11,16,14.40
2019,04,02,11,17,14.40
2019,04,02,11,18,14.50
2019,04,02,11,19,14.60
2019,04,02,11,20,14.50
2019,04,02,11,21,14.40
2019,04,02,11,22,14.40
2019,04,02,11,23,14.40
2019,04,02,11,24,14.50
2019,04,02,11,25,14.50
2019,04,02,11,26,14.50
2019,04,02,11,27,14.60
2019,04,02,11,28,14.70
2019,04,02,11,29,14.80
2019,04,02,11,30,14.90
2019,04,02,11,31,14.90
2019,04,02,11,32,14.90
2019,04,02,11,33,14.90
2019,04,02,11,34,14.90
2019,04,02,11,35,14.90
2019,04,02,11,36,14.90
2019,04,02,11,37,15.00
2019,04,02,11,38,15.00
2019,04,02,11,39,15.10
2019,04,02,11,40,15.10
2019,04,02,11,41,15.10
2019,04,02,11,42,15.10
2019,04,02,11,43,15.10
2019,04,02,11,44,15.00
2019,04,02,11,45,15.10
2019,04,02,11,46,15.10
2019,04,02,11,47,15.10
2019,04,02,11,48,15.00
2019,04,02,11,49,15.10
2019,04,02,11,50,15.10
2019,04,02,11,51,15.10
2019,04,02,11,52,15.10
2019,04,02,11,53,15.20
2019,04,02,11,54,15.20
2019,04,02,11,55,15.20
2019,04,02,11,56,15.20
2019,04,02,11,57,15.10
2019,04,02,11,58,15.10
2019,04,02,11,59,15.00
2019,04,02,12,00,15.00
2019,04,02,12,01,15.00
2019,04,02,12,02,15.00
2019,04,02,12,03,15.00
2019,04,02,12,04,15.00
2019,04,02,12,05,14.90
2019,04,02,12,06,14.90
2019,04,02,12,07,14.90
2019,04,02,12,08,14.90
2019,04,02,12,09,14.90
2019,04,02,12,10,15.00
2019,04,02,12,11,15.00
2019,04,02,12,12,15.10
2019,04,02,12,13,15.10
2019,04,02,12,14,15.20
2019,04,02,12,15,15.20
2019,04,02,12,16,15.30
2019,04,02,12,17,15.30
2019,04,02,12,18,15.20
2019,04,02,12,19,15.20
2019,04,02,12,20,15.10
2019,04,02,12,21,15.10
2019,04,02,12,22,15.10
2019,04,02,12,23,15.10
2019,04,02,12,24,15.20
2019,04,02,12,25,15.20
2019,04,02,12,26,15.20
2019,04,02,12,27,15.20
2019,04,02,12,28,15.20
2019,04,02,12,29,15.30
2019,04,02,12,30,15.30
2019,04,02,12,31,15.30
2019,04,02,12,32,15.30
2019,04,02,12,33,15.30
2019,04,02,12,34,15.30
2019,04,02,12,35,15.40
2019,04,02,12,36,15.40
2019,04,02,12,37,15.40
2019,04,02,12,38,15.40
2019,04,02,12,39,15.40
2019,04,02,12,40,15.40
2019,04,02,12,41,15.50
2019,04,02,12,42,15.50
2019,04,02,12,43,15.50
2019,04,02,12,44,15.60
2019,04,02,12,45,15.60
2019,04,02,12,46,15.70
2019,04,02,12,47,15.70
2019,04,02,12,48,15.70
2019,04,02,12,49,15.80
2019,04,02,12,50,15.80
2019,04,02,12,51,15.80
2019,04,02,12,52,15.90
2019,04,02,12,53,15.90
2019,04,02,12,54,15.90
2019,04,02,12,55,15.90
2019,04,02,12,56,15.90
2019,04,02,12,57,15.90
2019,04,02,12,58,15.90
2019,04,02,12,59,15.90
2019,04,02,13,00,15.80
2019,04,02,13,01,15.80
2019,04,02,13,02,15.80
2019,04,02,13,03,15.70
2019,04,02,13,04,15.60
2019,04,02,13,05,15.50
2019,04,02,13,06,15.50
2019,04,02,13,07,15.40
2019,04,02,13,08,15.40
2019,04,02,13,09,15.30
2019,04,02,13,10,15.30
2019,04,02,13,11,15.20
2019,04,02,13,12,15.20
2019,04,02,13,13,15.20
2019,04,02,13,14,15.20
2019,04,02,13,15,15.10
2019,04,02,13,16,15.10
2019,04,02,13,17,15.00
2019,04,02,13,18,15.00
2019,04,02,13,19,15.00
2019,04,02,13,20,15.10
2019,04,02,13,21,15.10
2019,04,02,13,22,15.10
2019,04,02,13,23,15.10
2019,04,02,13,24,15.20
2019,04,02,13,25,15.20
2019,04,02,13,26,15.20
2019,04,02,13,27,15.30
2019,04,02,13,28,15.30
2019,04,02,13,29,15.40
2019,04,02,13,30,15.40
2019,04,02,13,31,15.50
2019,04,02,13,32,15.50
2019,04,02,13,33,15.50
2019,04,02,13,34,15.60
2019,04,02,13,35,15.60
2019,04,02,13,36,15.70
2019,04,02,13,37,15.70
2019,04,02,13,38,15.80
2019,04,02,13,39,15.80
2019,04,02,13,40,15.80
2019,04,02,13,41,15.90
2019,04,02,13,42,15.90
2019,04,02,13,43,15.90
2019,04,02,13,44,15.90
2019,04,02,13,45,16.00
2019,04,02,13,46,16.00
2019,04,02,13,47,16.00
2019,04,02,13,48,16.10
2019,04,02,13,49,16.10
2019,04,02,13,50,16.20
2019,04,02,13,51,16.20
2019,04,02,13,52,16.20
2019,04,02,13,53,16.20
2019,04,02,13,54,16.40
2019,04,02,13,55,16.40
2019,04,02,13,56,16.50
2019,04,02,13,57,16.60
2019,04,02,13,58,16.60
2019,04,02,13,59,16.60
2019,04,02,14,00,16.70
2019,04,02,14,01,16.70
2019,04,02,14,02,16.70
2019,04,02,14,03,16.80
2019,04,02,14,04,16.80
2019,04,02,14,05,16.90
2019,04,02,14,06,16.90
2019,04,02,14,07,17.00
2019,04,02,14,08,17.00
2019,04,02,14,09,17.10
2019,04,02,14,10,17.10
2019,04,02,14,11,17.10
2019,04,02,14,12,17.10
2019,04,02,14,13,17.00
2019,04,02,14,14,17.00
2019,04,02,14,15,17.00
2019,04,02,14,16,17.00
2019,04,02,14,17,17.10
2019,04,02,14,18,17.10
2019,04,02,14,19,17.20
2019,04,02,14,20,17.20
2019,04,02,14,21,17.20
2019,04,02,14,22,17.20
2019,04,02,14,23,17.30
2019,04,02,14,24,17.40
2019,04,02,14,25,17.50
2019,04,02,14,26,17.50
2019,04,02,14,27,17.50
2019,04,02,14,28,17.50
2019,04,02,14,29,17.40
2019,04,02,14,30,17.20
2019,04,02,14,31,17.10
2019,04,02,14,32,17.00
2019,04,02,14,33,16.90
2019,04,02,14,34,16.80
2019,04,02,14,35,16.80
2019,04,02,14,36,16.90
2019,04,02,14,37,16.90
2019,04,02,14,38,17.00
2019,04,02,14,39,17.00
2019,04,02,14,40,17.00
2019,04,02,14,41,16.90
2019,04,02,14,42,16.80
2019,04,02,14,43,16.80
2019,04,02,14,44,16.80
2019,04,02,14,45,16.70
2019,04,02,14,46,16.70
2019,04,02,14,47,16.80
2019,04,02,14,48,16.80
2019,04,02,14,49,16.80
2019,04,02,14,50,16.90
2019,04,02,14,51,16.90
2019,04,02,14,52,16.90
2019,04,02,14,53,17.00
2019,04,02,14,54,17.10
2019,04,02,14,55,17.10
2019,04,02,14,56,17.20
2019,04,02,14,57,17.20
2019,04,02,14,58,17.20
2019,04,02,14,59,17.30
2019,04,02,15,00,17.20
2019,04,02,15,01,17.20
2019,04,02,15,02,17.20
2019,04,02,15,03,17.20
2019,04,02,15,04,17.20
2019,04,02,15,05,17.20
2019,04,02,15,06,17.10
2019,04,02,15,07,17.00
2019,04,02,15,08,17.00
2019,04,02,15,09,16.90
2019,04,02,15,10,16.80
2019,04,02,15,11,16.70
2019,04,02,15,12,16.70
2019,04,02,15,13,16.70
2019,04,02,15,14,16.70
2019,04,02,15,15,16.60
2019,04,02,15,16,16.60
2019,04,02,15,17,16.60
2019,04,02,15,18,16.70
2019,04,02,15,19,16.70
2019,04,02,15,20,16.80
2019,04,02,15,21,16.80
2019,04,02,15,22,16.80
2019,04,02,15,23,16.80
2019,04,02,15,24,16.90
2019,04,02,15,25,16.90
2019,04,02,15,26,16.90
2019,04,02,15,27,16.90
2019,04,02,15,28,16.90
2019,04,02,15,29,17.00
2019,04,02,15,30,17.00
2019,04,02,15,31,17.10
2019,04,02,15,32,17.10
2019,04,02,15,33,17.10
2019,04,02,15,34,17.10
2019,04,02,15,35,17.10
2019,04,02,15,36,17.00
2019,04,02,15,37,16.90
2019,04,02,15,38,16.90
2019,04,02,15,39,16.80
2019,04,02,15,40,16.60
2019,04,02,15,41,16.50
2019,04,02,15,42,16.30
2019,04,02,15,43,16.20
2019,04,02,15,44,16.10
2019,04,02,15,45,16.00
2019,04,02,15,46,16.00
2019,04,02,15,47,15.90
2019,04,02,15,48,15.90
2019,04,02,15,49,15.90
2019,04,02,15,50,16.00
2019,04,02,15,51,16.00
2019,04,02,15,52,16.00
2019,04,02,15,53,16.00
2019,04,02,15,54,16.00
2019,04,02,15,55,16.10
2019,04,02,15,56,16.10
2019,04,02,15,57,16.10
2019,04,02,15,58,16.10
2019,04,02,15,59,16.10
2019,04,02,16,00,16.10
2019,04,02,16,01,16.10
2019,04,02,16,02,16.10
2019,04,02,16,03,16.20
2019,04,02,16,04,16.20
2019,04,02,16,05,16.20
2019,04,02,16,06,16.20
2019,04,02,16,07,16.20
2019,04,02,16,08,16.20
2019,04,02,16,09,16.20
2019,04,02,16,10,16.20
2019,04,02,16,11,16.20
2019,04,02,16,12,16.10
2019,04,02,16,13,16.10
2019,04,02,16,14,16.20
2019,04,02,16,15,16.20
2019,04,02,16,16,16.20
2019,04,02,16,17,16.20
2019,04,02,16,18,16.20
2019,04,02,16,19,16.20
2019,04,02,16,20,16.20
2019,04,02,16,21,16.20
2019,04,02,16,22,16.30
2019,04,02,16,23,16.30
2019,04,02,16,24,16.40
2019,04,02,16,25,16.40
2019,04,02,16,26,16.40
2019,04,02,16,27,16.50
2019,04,02,16,28,16.50
2019,04,02,16,29,16.50
2019,04,02,16,30,16.50
2019,04,02,16,31,16.50
2019,04,02,16,32,16.50
2019,04,02,16,33,16.40
2019,04,02,16,34,16.40
2019,04,02,16,35,16.30
2019,04,02,16,36,16.20
2019,04,02,16,37,16.20
2019,04,02,16,38,16.10
2019,04,02,16,39,16.00
2019,04,02,16,40,16.00
2019,04,02,16,41,15.90
2019,04,02,16,42,15.80
2019,04,02,16,43,15.80
2019,04,02,16,44,15.80
2019,04,02,16,45,15.80
2019,04,02,16,46,15.80
2019,04,02,16,47,15.80
2019,04,02,16,48,15.80
2019,04,02,16,49,15.80
2019,04,02,16,50,15.80
2019,04,02,16,51,15.70
2019,04,02,16,52,15.70
2019,04,02,16,53,15.70
2019,04,02,16,54,15.70
2019,04,02,16,55,15.70
2019,04,02,16,56,15.70
2019,04,02,16,57,15.70
2019,04,02,16,58,15.70
2019,04,02,16,59,15.70
2019,04,02,17,00,15.70
2019,04,02,17,01,15.70
2019,04,02,17,02,15.70
2019,04,02,17,03,15.70
2019,04,02,17,04,15.70
2019,04,02,17,05,15.70
2019,04,02,17,06,15.80
2019,04,02,17,07,15.80
2019,04,02,17,08,15.80
2019,04,02,17,09,15.80
2019,04,02,17,10,15.80
2019,04,02,17,11,15.80
2019,04,02,17,12,15.80
2019,04,02,17,13,15.90
2019,04,02,17,14,15.90
2019,04,02,17,15,15.90
2019,04,02,17,16,15.90
2019,04,02,17,17,15.90
2019,04,02,17,18,15.90
2019,04,02,17,19,15.90
2019,04,02,17,20,15.90
2019,04,02,17,21,15.90
2019,04,02,17,22,15.80
2019,04,02,17,23,15.70
2019,04,02,17,24,15.60
2019,04,02,17,25,15.50
2019,04,02,17,26,15.40
2019,04,02,17,27,15.20
2019,04,02,17,28,15.10
2019,04,02,17,29,15.00
2019,04,02,17,30,14.90
2019,04,02,17,31,14.80
2019,04,02,17,32,14.70
2019,04,02,17,33,14.60
2019,04,02,17,34,14.50